map of CKS home
Great Circle Mapper logo
CKS - Airport
Location
City:  Carajįs, Parį, Brazil
Near (Alt.):Parauapebas
ICAO / IATA:SBCJ / CKS

Details
Type:Airport (Aerodrome, Airfield)
Latitude:6°07'04"S (-6.117805)
Longitude:50°00'12"W (-50.003471)
Datum:WGS 1984
Elevation:2038 ft (621 m)
Variation:20.21°W (WMM2015 magnetic declination)
-0.06° annual change
Runways:1
Longest:6562 × 148 ft (2000 × 45 m), paved

Time
Time Zone:UTC-3
Local Time:

Weather
METAR:SBCJ 172210Z 14004KT CAVOK 25/21 Q1013
TAF:SBCJ 180400Z 1806/1818 00000KT 9999 FEW010 TN22/1811Z TX28/1818Z PROB30 1810/1812 5000 BR BKN005
BECMG 1812/1814 11005KT SCT010
RMK PDZ

Related Locations
Nearby:
Farthest:MXI: 12187 mi / 19613 km
Mati [Imelda Romualdez Marcos], Mindanao Island, PH

Find:

   beyond  
but within

Other Information
Maps:
NOTAMs:
Links:
Sources:

  
flag of Brazil
flag of Parį
  

Sectional Chart

Flight Planning
at skyvector.com

Satellite Image

Google Maps Satellite View

 

Copyright © 2004-2015 Karl L. Swartz. All rights reserved.
The Great Circle Mapper name and logo are trademarks of the Great Circle Mapper.
All other trademarks mentioned herein belong to their respective owners.
Please see credits for attibutions and further copyright information.

  Follow gcmap on Facebook Follow gcmap on Twitter Follow gcmap on Google+

hCard Microformat

Geo Microformat